Weather History for Burnet, TX

Change the Weather History Date:

Tuesday, September 3, 2013

  Actual Average Record
Temperature  
Mean Temperature 84 °F -  
Max Temperature 97 °F 89 °F 106 °F (2000)
Min Temperature 73 °F 69 °F 62 °F (2004)
Cooling Degree Days 20    
Growing Degree Days 34 (Base 50)    
Moisture  
Dew Point 65 °F    
Average Humidity 53    
Maximum Humidity 79    
Minimum Humidity 33    
Precipitation  
Precipitation 0.00 in - - ()
Sea Level Pressure  
Sea Level Pressure 29.95 in    
Wind  
Wind Speed 4 mph (ESE)    
Max Wind Speed 12 mph    
Max Gust Speed 17 mph    
Visibility 10 miles    
Events Rain , Thunderstorm    
Averages and records for this station are not official NWS values.
T = Trace of Precipitation, MM = Missing Value Source: NWS Daily Summary

Daily Weather History Graph

Daily Weather History Graph

Search for Another Location

Airport:

Trip Planner

Search our weather history database for the weather conditions in past years. The results will help you decide how hot, cold, wet, or windy it might be!

Date:

Astronomy

Sep. 03, 2013 Rise Set
Actual Time 7:10 AM CDT 7:53 PM CDT
Civil Twilight 6:46 AM CDT 8:17 PM CDT
Nautical Twilight 6:17 AM CDT 8:46 PM CDT
Astronomical Twilight 5:47 AM CDT 9:15 PM CDT
Moon 5:29 AM CDT (9/3) 6:39 PM CDT (9/3)
Length of Visible Light 13h 31m
Length of Day
12h 42m
Waning Crescent, 3% of the Moon is Illuminated
Sep 3
Waning Crescent
Sep 5
New
Sep 12
First Quarter
Sep 19
Full
Sep 26
Last Quarter

Hourly Weather History & Observations

Time (CDT) Temp. Heat Index Dew Point Humidity Pressure Visibility Wind Dir Wind Speed Gust Speed Precip Events Conditions
12:53 AM 79.0 °F - 66.9 °F 66% 29.95 in 10.0 mi SSW 6.9 mph - N/A   Mostly Cloudy
1:53 AM 77.0 °F - 66.9 °F 71% 29.95 in 10.0 mi West 3.5 mph - N/A   Clear
2:53 AM 77.0 °F - 66.9 °F 71% 29.94 in 10.0 mi Calm Calm - N/A   Clear
3:53 AM 75.9 °F - 66.9 °F 74% 29.93 in 10.0 mi Calm Calm - N/A   Partly Cloudy
4:53 AM 75.0 °F - 66.9 °F 76% 29.94 in 10.0 mi Calm Calm - N/A   Clear
5:53 AM 73.9 °F - 66.0 °F 76% 29.94 in 10.0 mi Calm Calm - N/A   Clear
6:53 AM 73.0 °F - 66.0 °F 79% 29.95 in 10.0 mi Calm Calm - N/A   Clear
7:53 AM 73.0 °F - 66.0 °F 79% 29.97 in 10.0 mi Calm Calm - N/A   Clear
8:53 AM 80.1 °F 82.7 °F 68.0 °F 67% 29.99 in 10.0 mi North 3.5 mph - N/A   Partly Cloudy
9:53 AM 84.0 °F 87.0 °F 68.0 °F 58% 30.00 in 10.0 mi Variable 4.6 mph - N/A   Clear
10:53 AM 89.1 °F 92.1 °F 66.9 °F 48% 30.01 in 10.0 mi NNW 4.6 mph - N/A   Clear
11:53 AM 91.0 °F 93.0 °F 64.9 °F 42% 30.00 in 10.0 mi Calm Calm - N/A   Clear
12:53 PM 93.9 °F 95.6 °F 64.0 °F 37% 29.99 in 10.0 mi Variable 4.6 mph - N/A   Clear
1:53 PM 95.0 °F 96.0 °F 63.0 °F 34% 29.96 in 10.0 mi Variable 3.5 mph - N/A   Mostly Cloudy
2:53 PM 95.0 °F 97.0 °F 64.0 °F 36% 29.94 in 10.0 mi Variable 5.8 mph - N/A   Partly Cloudy
3:23 PM 96.1 °F 97.3 °F 63.0 °F 33% 29.98 in 10.0 mi Variable 6.9 mph - N/A Thunderstorm Partly Cloudy
3:53 PM 90.0 °F 92.8 °F 66.9 °F 46% 29.92 in 10.0 mi ENE 11.5 mph 17.3 mph 0.00 in Rain Light Rain
4:19 PM 89.1 °F 91.3 °F 66.0 °F 46% 29.97 in 10.0 mi ESE 11.5 mph - 0.00 in Thunderstorm Partly Cloudy
4:31 PM 91.9 °F 94.5 °F 66.0 °F 42% 29.96 in 10.0 mi ESE 8.1 mph - 0.00 in Thunderstorm Thunderstorm
4:46 PM 91.9 °F 93.3 °F 64.0 °F 39% 29.96 in 10.0 mi SE 6.9 mph - 0.00 in   Clear
4:53 PM 91.9 °F 92.9 °F 63.0 °F 38% 29.91 in 10.0 mi SE 6.9 mph - 0.00 in   Clear
5:53 PM 93.0 °F 94.2 °F 63.0 °F 37% 29.89 in 10.0 mi South 4.6 mph - N/A   Clear
6:53 PM 93.0 °F 94.2 °F 63.0 °F 37% 29.89 in 10.0 mi ESE 4.6 mph - N/A   Clear
7:53 PM 91.0 °F 92.6 °F 64.0 °F 41% 29.89 in 10.0 mi Calm Calm - N/A   Clear
8:53 PM 87.1 °F 89.2 °F 66.0 °F 49% 29.91 in 10.0 mi Calm Calm - N/A   Clear
9:53 PM 86.0 °F 88.8 °F 66.9 °F 53% 29.92 in 10.0 mi Calm Calm - N/A   Overcast
10:53 PM 87.1 °F 88.9 °F 64.9 °F 48% 29.92 in 10.0 mi Calm Calm - N/A   Mostly Cloudy
11:53 PM 86.0 °F 87.6 °F 64.9 °F 49% 29.94 in 10.0 mi NE 5.8 mph - N/A   Mostly Cloudy